Weather History for LEVD - September, 2013

Change the Weather History Date:

Wednesday, September 25, 2013

  Actual Average Record
Temperature  
Mean Temperature 70 °F -  
Max Temperature 80 °F - - ()
Min Temperature 59 °F - - ()
Cooling Degree Days 4    
Growing Degree Days 20 (Base 50)    
Moisture  
Dew Point 53 °F    
Average Humidity 57    
Maximum Humidity 88    
Minimum Humidity 32    
Precipitation  
Precipitation 0.00 in - - ()
Sea Level Pressure  
Sea Level Pressure 29.97 in    
Wind  
Wind Speed 4 mph ()    
Max Wind Speed 10 mph    
Max Gust Speed -    
Visibility 6.2 miles    
Events      
T = Trace of Precipitation, MM = Missing Value Source: Averaged Metar Reports

Daily Weather History Graph

Daily Weather History Graph

Search for Another Location

Airport or City:

Trip Planner

Search our weather history database for the weather conditions in past years. The results will help you decide how hot, cold, wet, or windy it might be!

Date:

Astronomy

Sep. 25, 2013 Rise Set
Actual Time 8:09 AM CEST 8:11 PM CEST
Civil Twilight 7:42 AM CEST 8:39 PM CEST
Nautical Twilight 7:09 AM CEST 9:11 PM CEST
Astronomical Twilight 6:36 AM CEST 9:44 PM CEST
Moon No Moon Rise 2:08 PM CEST (9/25)
Length of Visible Light 12h 56m
Length of Day
12h 01m
Waning Gibbous, 66% of the Moon is Illuminated
Sep 25
Waning Gibbous
Sep 27
Last Quarter
Oct 5
New
Oct 12
First Quarter
Oct 19
Full

Hourly Weather History & Observations

Time (CEST) Temp. Dew Point Humidity Pressure Visibility Wind Dir Wind Speed Gust Speed Precip Events Conditions
12:00 AM 60.8 °F 50.0 °F 68% 30.01 in - West 2.3 mph - N/A   Clear
12:30 AM 60.8 °F 51.8 °F 72% 30.01 in - WSW 1.2 mph - N/A   Clear
1:00 AM 60.8 °F 51.8 °F 72% 30.01 in - WSW 2.3 mph - N/A   Clear
1:30 AM 62.6 °F 51.8 °F 68% 30.01 in - West 4.6 mph - N/A   Clear
2:00 AM 59.0 °F 51.8 °F 77% 30.01 in - WSW 3.5 mph - N/A   Clear
7:00 AM 59.0 °F 55.4 °F 88% 29.98 in - South 3.5 mph - N/A   Clear
7:30 AM 59.0 °F 55.4 °F 88% 29.98 in - South 3.5 mph - N/A   Clear
8:00 AM 59.0 °F 53.6 °F 82% 29.98 in - South 3.5 mph - N/A   Clear
8:30 AM 59.0 °F 55.4 °F 88% 29.98 in - South 3.5 mph - N/A   Clear
9:00 AM 60.8 °F 55.4 °F 82% 30.01 in - Variable 1.2 mph - N/A   Clear
9:30 AM 60.8 °F 55.4 °F 82% 29.98 in - Calm Calm - N/A   Clear
10:00 AM 64.4 °F 55.4 °F 73% 29.98 in - Variable 1.2 mph - N/A   Clear
10:30 AM 66.2 °F 57.2 °F 73% 30.01 in - Variable 2.3 mph - N/A   Clear
11:00 AM 68.0 °F 57.2 °F 68% 30.01 in - Variable 2.3 mph - N/A   Clear
11:30 AM 68.0 °F 55.4 °F 64% 30.01 in - Variable 2.3 mph - N/A   Clear
12:00 PM 71.6 °F 55.4 °F 57% 30.01 in - South 2.3 mph - N/A   Clear
12:30 PM 73.4 °F 55.4 °F 53% 30.01 in - South 4.6 mph - N/A   Clear
1:00 PM 75.2 °F 55.4 °F 50% 29.98 in - South 4.6 mph - N/A   Clear
1:30 PM 75.2 °F 55.4 °F 50% 29.98 in - SSW 4.6 mph - N/A   Clear
2:00 PM 77.0 °F 55.4 °F 47% 29.98 in 6.2 mi South 4.6 mph - N/A   Partly Cloudy
2:30 PM 77.0 °F 53.6 °F 44% 29.98 in 6.2 mi SSE 8.1 mph - N/A   Partly Cloudy
3:00 PM 77.0 °F 53.6 °F 44% 29.98 in 6.2 mi South 8.1 mph - N/A   Partly Cloudy
3:30 PM 78.8 °F 53.6 °F 42% 29.95 in 6.2 mi South 9.2 mph - N/A   Partly Cloudy
4:00 PM 80.6 °F 50.0 °F 34% 29.95 in 6.2 mi SSW 6.9 mph - N/A   Scattered Clouds
4:30 PM 78.8 °F 50.0 °F 36% 29.95 in 6.2 mi SW 6.9 mph - N/A   Scattered Clouds
5:00 PM 80.6 °F 50.0 °F 34% 29.92 in 6.2 mi SW 10.4 mph - N/A   Scattered Clouds
5:30 PM 80.6 °F 50.0 °F 34% 29.92 in 6.2 mi SW 8.1 mph - N/A   Scattered Clouds
6:00 PM 80.6 °F 50.0 °F 34% 29.92 in 6.2 mi SW 9.2 mph - N/A   Scattered Clouds
6:30 PM 80.6 °F 48.2 °F 32% 29.92 in 6.2 mi WSW 4.6 mph - N/A   Scattered Clouds
7:00 PM 78.8 °F 48.2 °F 34% 29.92 in 6.2 mi SW 10.4 mph - N/A   Scattered Clouds
7:30 PM 77.0 °F 50.0 °F 39% 29.92 in 6.2 mi West 9.2 mph - N/A   Partly Cloudy
8:00 PM 75.2 °F 50.0 °F 41% 29.95 in 6.2 mi West 10.4 mph - N/A   Partly Cloudy
8:30 PM 71.6 °F 50.0 °F 46% 29.95 in 6.2 mi West 6.9 mph - N/A   Partly Cloudy
9:00 PM 71.6 °F 51.8 °F 50% 29.95 in 6.2 mi WSW 8.1 mph - N/A   Partly Cloudy
9:30 PM 69.8 °F 51.8 °F 53% 29.95 in 6.2 mi WSW 3.5 mph - N/A   Partly Cloudy